FENGYUN 1C DEB

Satellite information

Favourite Embed

Satellite Type and Status

DEBRISIN ORBIT

Key statistics

Satellite FENGYUN 1C DEB at a glance.

Uptime

9714

Days in orbit

Revolutions

≈ 14.1

Per day

Orbit

SSO

Sun Synchronous Orbit

Inclination

98.7

Latest

Satellite identification and parameters

Extended collection of information and parameters for FENGYUN 1C DEB.

Object identification

Identified? True

Debris? True

Object name: FENGYUN 1C DEB

International designator: 1999-025CUD

Object number (NORAD): 32183

Object ID (CCSDS): 32183

Country: PEOPLES REPUBLIC OF CHINA (PRC)

Current information (Y/N): Y

RCS size: SMALL

Orbital parameters

Period: 102.122 minutes

Inclination: 98.7133 deg

SMA: 7237.226 km

Apoapsis: 890.05 km

Periapsis: 828.133 km

RAAN: 37.3127 deg

Eccentricy: 0.00427768

Argument of periapsis: 62.7157 deg

Mean anomaly: 297.8361 deg

Mean motion: 14.10082566 rev/day

Mean motion (dot): 0.00001675 rev/day2

B* drag term: 0.00096389265 1/REarth

Two-line elements (TLE)

Creation date: Dec. 12, 2025, 10:14 a.m.

Reference frame: TEME

Reference center: EARTH

Epoch: Dec. 12, 2025, 2:09 a.m. UTC

TLE line 0: 0 FENGYUN 1C DEB

TLE line 1: 1 32183U 99025CUD 25346.08987913 .00001675 00000-0 96389-3 0 9994

TLE line 2: 2 32183 98.7133 37.3127 0042777 62.7157 297.8361 14.10082566727553

Live tracking on map

Real-time ground track for satellite FENGYUN 1C DEB.

In-orbit conjunctions

A list of the most updated potential collisions computed for object FENGYUN 1C DEB.

Target Orbit TCA Probability of collision Miss distance Type
CZ-6A DEB LEO 2025-07-25 04:43:46 0.0001314698 610.0 (m) DEBRIS
PSLV R/B SSO 2024-12-16 01:15:15 0.0001468252 346.0 (m) ROCKET BODY
COSMOS 397 DEB * LEO 2024-11-13 09:18:22 0.0002643878 419.0 (m) DEBRIS

Associated space launch

Chinese polar orbiting meteorological satellite

FENGYUN 1C DEB was lifted into orbit during the mission ‘Long March 4B | Feng Yun 1C’, on board a Long March 4B space rocket.

The launch took place on May 10, 1999, 1:33 a.m. from Launch Complex 7.

For more information about the launch, click the button.

Launch to space Long March 4B | Feng Yun 1C
Long March 4B | Feng Yun 1C

Agency: N/A

Status: Launch Successful

Launch date: May 10, 1999, 1:33 a.m. UTC

Rocket: Long March 4B

Launch pad: Launch Complex 7

Location: Taiyuan Satellite Launch Center, People's Republic of China

...

Latest news about this satellite

There are no fresh news available about this satellite. Check back as we update our databases every day.


Newsletter sign-up

Weekly statistics, charts and insights to help you stay on top of the space industry.